Regional Weather Roundup
Issued by NWS

Home | Current Version | Previous Version | Text Only | Print | Product List | Glossary Off
Versions: 1 2 3 4 5 6 7 8 9 10 11 12 13 14 15 16 17 18 19 20 21 22 23 24 25 26 27 28 29 30 31 32 33 34 35 36 37 38 39 40 41 42 43 44 45 46 47 48 49 50

000
ASUS45 KTFX 252104
RWRMT
MONTANA HOURLY WEATHER ROUNDUP
NATIONAL WEATHER SERVICE GREAT FALLS MT
204 PM MST THU DEC 25 2014

NOTE: "FAIR" INDICATES FEW OR NO CLOUDS BELOW 12000 FEET WITH NO
SIGNIFICANT WEATHER AND/OR OBSTRUCTIONS TO VISIBILITY.

* THESE STATIONS ARE NOT UNDER NWS QUALITY CONTROL. THEY DO NOT
   REPORT WEATHER SUCH AS PRECIPITATION OR FOG.

MTZ001>007-043-252200-
WEST OF THE DIVIDE
CITY           SKY/WX    TMP DP  RH WIND       PRES   REMARKS
KALISPELL      CLOUDY    28  23  81 CALM      29.97S
MISSOULA       CLOUDY    30  28  92 CALM      29.96S
BUTTE          CLOUDY    21  14  74 W8        29.85R WCI  11
MULLAN PASS    HAZE      23  18  81 VRB5      29.85S VSB 3/4  WCI  16
* ESSEX        N/A       23  17  78 S1         N/A
* LINCOLN      N/A       31  18  59 S3         N/A
* LOOKOUT PASS N/A       24  21  88 N3         N/A
* POLSON       N/A       29  27  92 N/A        N/A
* RONAN APT    PTCLDY    30  27  89 N5         N/A   WCI  25
* SEELEY LAKE  N/A       33  23  67 NW2        N/A
* THOMP F APT  SUNNY     22   9  57 N10G24     N/A   WCI  11
$$

MTZ008-052>055-252200-
SOUTHWEST MONTANA
CITY           SKY/WX    TMP DP  RH WIND       PRES   REMARKS
BOZEMAN        CLOUDY    25  19  78 E6        29.87R WCI  18
DILLON         CLOUDY    25  18  75 E9        29.83R WCI  16
* W YELLOWSTON CLOUDY    20  11  68 N6G16      N/A   WCI  12
* THREE FORKS  CLOUDY    28  28 100 N8         N/A   WCI  20
* BOULDER HILL N/A       19  16  88 N4G9       N/A
* MONIDA PASS  N/A       17  13  84 NW20G26    N/A
* RAYNOLDS PAS N/A       15  14  96 NW27G37    N/A   WCI  -5
* WHITEHALL    N/A       29  16  58 NE9G17     N/A   WCI  21
* WISE RIVER   N/A       29  14  53 W2G8       N/A
$$

MTZ009>010-012-014-046-048-049-054-252200-
EAST SLOPES AND CENTRAL MONTANA
CITY           SKY/WX    TMP DP  RH WIND       PRES   REMARKS
CUT BANK       PTSUNNY   16  12  84 SE6       29.88F WCI   7
GREAT FALLS    CLOUDY    25  21  85 SW3       29.92S
HELENA         PTCLDY    28  19  69 W3        29.92R
* DEARBORN     N/A       27  22  81 S4         N/A
* EAST GLACIER N/A       15  13  92 E2         N/A
* MONARCH      N/A       18  14  84 NW8        N/A   WCI   8
* PENDROY      N/A       22  17  81 S6         N/A   WCI  14
* ROGERS PASS  N/A       23  14  68 SE7        N/A   WCI  15
* SWEET GRASS  N/A       23  18  81 SW11       N/A   WCI  12
$$

MTZ011-013-016-021-035-040-045-047-050-051-252200-
NORTH CENTRAL MONTANA
CITY           SKY/WX    TMP DP  RH WIND       PRES   REMARKS
HAVRE          CLOUDY    25  19  78 NW9       29.97R WCI  16
LEWISTOWN      CLOUDY    21  18  88 NW8       29.90R WCI  11
* CHESTER      N/A       27  18  69 W6G12      N/A   WCI  20
* DENTON       N/A       23  20  88 N8         N/A   WCI  14
* GEYSER       N/A       22  16  78 W16        N/A   WCI   8
* JUDITH GAP   N/A       19  19 100 VRB12G17    N/A   WCI   6
* LOMA         N/A       27  20  75 SW6        N/A   WCI  20
$$

MTZ017>020-022>027-061-062-252200-
NORTHEAST MONTANA
CITY           SKY/WX    TMP DP  RH WIND       PRES   REMARKS
GLASGOW        CLOUDY    23  16  74 NW13      29.95R WCI  11
GLENDIVE       CLOUDY    25  16  69 N15       29.93R WCI  13
JORDAN         CLOUDY    27  18  69 N14       29.93R WCI  16
SIDNEY         CLOUDY    25  19  78 NW14      29.94R WCI  13
WOLF POINT     CLOUDY    25  16  69 N12       29.97R WCI  14
* BEAVER HILL  N/A       22  18  85 NW15       N/A   WCI   9
* CIRCLE       N/A       24  19  81 NW4G12     N/A
* LINDSAY DVD  N/A       20  16  84 NW17G24    N/A   WCI   5
* NAVAJO       N/A       17  13  84 NW16       N/A   WCI   2
* SACO         N/A       25  17  72 NW10G16    N/A   WCI  15
$$

MTZ028>042-056>058-252200-
SOUTHCENTRAL AND SOUTHEAST MONTANA
CITY           SKY/WX    TMP DP  RH WIND       PRES   REMARKS
BAKER          CLOUDY    21  18  88 NW15      29.87R WCI   7
BILLINGS       CLOUDY    25  21  85 NE6       29.90R WCI  18
LIVINGSTON     CLOUDY    25  18  75 E6        29.85R WCI  18
MILES CITY     CLOUDY    25  21  85 N9        29.92R WCI  16
* LAUREL APT   CLOUDY    25  16  69 NE5        N/A   WCI  19
* ROUNDUP APT  CLOUDY    25  18  75 N5         N/A   WCI  19
* ALZADA       N/A       24  20  85 NW7        N/A   WCI  16
* HYSHAM       N/A       23  16  74 NE2G8      N/A
* REED POINT   N/A       27  19  72 NW4G9      N/A
* ROSCOE HILL  N/A       21  15  78 NW6        N/A   WCI  13
$$

REGIONAL REPORTS...DAKOTAS
CITY           SKY/WX    TMP DP  RH WIND       PRES   REMARKS
WILLISTON      CLOUDY    25  18  75 NW15      29.91R WCI  13
DICKINSON      CLOUDY    25  19  78 NW15G24   29.83R WCI  13
BEACH          CLOUDY    23  19  85 N14       29.89R WCI  10
CROSBY         CLOUDY    23  19  85 NW18G25   29.90R WCI   9
WATFORD CITY   LGT SNOW  25  19  78 NW15      29.88R WCI  13
BISMARCK       CLOUDY    27  21  78 NW13      29.85R WCI  16
GRAND FORKS    CLOUDY    28  21  75 N14       29.83R WCI  17
FARGO          CLOUDY    30  25  82 NW10      29.80R WCI  21
BUFFALO SD     CLOUDY    25  19  78 N17       29.76R WCI  12
RAPID CITY     SNOW      27  23  85 N25       29.76R VSB 1/2  WCI  12
$$

REGIONAL REPORTS...WYOMING/IDAHO/WASHINGTON
CITY           SKY/WX    TMP DP  RH WIND       PRES   REMARKS
GILLETTE       LGT SNOW  21  19  92 N16       29.78R VSB 3/4  WCI   7
SHERIDAN       LGT SNOW  25  19  78 NW17      29.84R VSB 1 3/4 WCI  12
CODY           CLOUDY    21  18  88 N14       29.79R VSB 3    WCI   8
YELLOWSTONE LA CLOUDY    16  10  77 CALM      29.68R
SALMON         CLOUDY    30  18  61 N13       29.87R WCI  20
MULLAN PASS    HAZE      23  18  81 VRB5      29.85S VSB 3/4  WCI  16
SAND POINT     CLOUDY    32  28  85 NE3       30.04S
SPOKANE        SUNNY     36  27  70 SW5       30.02S WCI  32

$$



USA.gov is the U.S. government's official web portal to all federal, state and local government web resources and services.